Date String (YYYY-MM-DD hh:mm:ss) UTC,Instrument flags,absolute air pressure of the measurement (hPa),sample flow rate (lpm),inlet stack bypass flow (lpm),air temperature of the measurement (°C),ambient temperature measured by the external sensor (°C),aerosol sample conditioner tube jacket temperature (°C),OPC LED temperature (°C),internal box temperature (°C),relative humidity of the measurement (%),span deviation,mass concentration of particles derived from Lorenz-Mie calculation of OPC scattering (μg/m³),mass concentration of particles derived from Lorenz-Mie calculation of OPC scattering (μg/m³),mass concentration of particles derived from Lorenz-Mie calculation of OPC scattering (μg/m³)
DateTimeUTC,F1_M11,P_M11,Q1_M11,Q2_M11,T1_M11,T2_M11,T3_M11,T4_M11,T5_M11,U1_M11,ZSPAN_M11,X2_M11,X0_M11,X1_M11
2023-12-07 04:00:00,SystemResetWarning,0826.6,5.00,000.00,025.6,024.6,000.0,034.0,027.0,7.4,0000.0,0003.99,0008.37,0003.71
2023-12-07 04:01:00,SystemResetWarning,0826.6,4.99,000.00,025.6,024.6,000.0,034.0,027.0,7.7,0000.0,0004.01,0008.77,0003.70
2023-12-07 04:02:00,SystemResetWarning,0826.6,5.00,000.00,025.6,024.6,000.0,034.0,027.0,8.0,0000.0,0003.84,0008.09,0003.55
2023-12-07 04:03:00,SystemResetWarning,0826.6,5.00,000.00,025.6,024.6,000.0,034.0,027.0,7.9,0000.0,0003.64,0007.62,0003.35
2023-12-07 04:04:00,SystemResetWarning,0826.6,4.99,000.00,025.6,024.6,000.0,034.0,027.0,7.7,0000.0,0003.41,0007.34,0003.14
2023-12-07 04:05:00,SystemResetWarning,0826.6,5.00,000.00,025.6,024.6,000.0,034.0,027.0,7.9,0000.0,0003.17,0006.89,0002.80
2023-12-07 04:06:00,SystemResetWarning,0826.6,5.00,000.00,025.6,024.6,000.0,034.0,027.0,7.6,0000.0,0002.82,0006.17,0002.40
2023-12-07 04:07:00,SystemResetWarning,0826.5,5.00,000.00,025.6,024.6,000.0,034.0,027.0,7.7,0000.0,0002.38,0005.63,0002.01
2023-12-07 04:08:00,SystemResetWarning,0826.5,5.00,000.00,025.6,024.6,000.0,034.0,027.0,7.6,0000.0,0001.96,0005.91,0001.61
2023-12-07 04:09:00,SystemResetWarning,0826.6,5.00,000.00,025.6,024.5,000.0,034.0,027.0,7.5,0000.0,0001.59,0005.36,0001.28
2023-12-07 04:10:00,SystemResetWarning,0826.5,5.01,000.00,025.6,024.5,000.0,034.0,027.0,7.4,0000.0,0001.37,0004.96,0001.07
2023-12-07 04:11:00,SystemResetWarning,0826.4,5.01,000.00,025.6,024.5,000.0,034.0,026.9,7.2,0000.0,0001.14,0003.82,0000.81
2023-12-07 04:12:00,SystemResetWarning,0826.4,5.00,000.00,025.6,024.5,000.0,034.0,026.9,7.7,0000.0,0000.93,0002.94,0000.60
2023-12-07 04:13:00,SystemResetWarning,0826.4,4.99,000.00,025.6,024.5,000.0,034.0,027.0,8.2,0000.0,0000.93,0002.97,0000.58
2023-12-07 04:14:00,SystemResetWarning,0826.4,4.99,000.00,025.6,024.6,000.0,034.0,027.0,8.3,0000.0,0000.97,0003.02,0000.57
2023-12-07 04:15:00,SystemResetWarning,0826.4,5.01,000.00,025.6,024.6,000.0,034.0,027.0,8.2,0000.0,0001.00,0003.02,0000.58
2023-12-07 04:16:00,SystemResetWarning,0826.4,5.00,000.00,025.6,024.6,000.0,034.0,026.9,8.2,0000.0,0001.02,0003.04,0000.58
2023-12-07 04:17:00,SystemResetWarning,0826.3,5.00,000.00,025.6,024.6,000.0,034.0,027.0,7.9,0000.0,0001.04,0003.13,0000.59
2023-12-07 04:18:00,SystemResetWarning,0826.3,5.01,000.00,025.6,024.6,000.0,034.0,027.0,7.8,0000.0,0001.05,0003.53,0000.59
2023-12-07 04:19:00,SystemResetWarning,0826.3,5.00,000.00,025.6,024.6,000.0,034.0,027.0,7.3,0000.0,0001.01,0002.59,0000.59
2023-12-07 04:20:00,SystemResetWarning,0826.3,4.99,000.00,025.6,024.6,000.0,034.0,027.0,7.3,0000.0,0001.02,0002.57,0000.59
2023-12-07 04:21:00,SystemResetWarning,0826.3,4.99,000.00,025.6,024.5,000.0,034.0,027.0,7.3,0000.0,0001.00,0002.46,0000.59
2023-12-07 04:22:00,SystemResetWarning,0826.3,5.00,000.00,025.6,024.5,000.0,034.0,026.9,7.4,0000.0,0000.91,0002.09,0000.59
2023-12-07 04:23:00,SystemResetWarning,0826.3,5.00,000.00,025.6,024.5,000.0,034.0,026.9,7.4,0000.0,0000.86,0001.83,0000.58
2023-12-07 04:24:00,SystemResetWarning,0826.2,5.01,000.00,025.6,024.5,000.0,034.0,026.9,7.7,0000.0,0000.83,0001.78,0000.58
2023-12-07 04:25:00,SystemResetWarning,0826.2,5.00,000.00,025.6,024.5,000.0,034.0,026.9,7.5,0000.0,0000.82,0001.72,0000.61
2023-12-07 04:26:00,SystemResetWarning,0826.2,5.00,000.00,025.6,024.5,000.0,033.9,026.9,7.2,0000.0,0000.84,0001.88,0000.63
2023-12-07 04:27:00,SystemResetWarning,0826.2,5.00,000.00,025.6,024.5,000.0,034.0,026.9,7.2,0000.0,0000.84,0001.85,0000.65
2023-12-07 04:28:00,SystemResetWarning,0826.2,4.99,000.00,025.6,024.5,000.0,034.0,026.9,7.3,0000.0,0000.81,0001.66,0000.65
2023-12-07 04:29:00,SystemResetWarning,0826.2,5.00,000.00,025.6,024.5,000.0,033.9,026.9,7.1,0000.0,0000.78,0001.16,0000.65
2023-12-07 04:30:00,SystemResetWarning,0826.2,5.00,000.00,025.6,024.5,000.0,033.9,026.9,7.4,0000.0,0000.78,0001.17,0000.65
2023-12-07 04:31:00,SystemResetWarning,0826.2,5.00,000.00,025.6,024.5,000.0,033.9,026.9,7.8,0000.0,0000.77,0001.13,0000.67
2023-12-07 04:32:00,SystemResetWarning,0826.2,5.00,000.00,025.6,024.6,000.0,033.9,026.9,7.7,0000.0,0000.80,0001.17,0000.68
2023-12-07 04:33:00,SystemResetWarning,0826.2,5.00,000.00,025.6,024.6,000.0,033.9,026.8,7.5,0000.0,0000.83,0001.23,0000.70
2023-12-07 04:34:00,SystemResetWarning,0826.2,5.00,000.00,025.6,024.6,000.0,033.9,026.8,7.5,0000.0,0000.84,0001.24,0000.71
2023-12-07 04:35:00,SystemResetWarning,0826.2,5.00,000.00,025.6,024.5,000.0,033.9,026.9,7.3,0000.0,0000.83,0001.24,0000.71
2023-12-07 04:36:00,SystemResetWarning,0826.1,5.00,000.00,025.6,024.5,000.0,033.9,026.9,7.2,0000.0,0000.81,0001.21,0000.70
2023-12-07 04:37:00,SystemResetWarning,0826.0,5.00,000.00,025.6,024.5,000.0,033.9,026.9,7.1,0000.0,0000.75,0000.95,0000.67
2023-12-07 04:38:00,SystemResetWarning,0826.0,5.01,000.00,025.5,024.4,000.0,033.9,026.9,7.1,0000.0,0000.74,0000.94,0000.66
2023-12-07 04:39:00,SystemResetWarning,0826.0,5.00,000.00,025.5,024.5,000.0,033.9,026.9,7.1,0000.0,0000.75,0001.01,0000.63
2023-12-07 04:40:00,SystemResetWarning,0826.0,5.00,000.00,025.5,024.5,000.0,033.9,026.8,7.3,0000.0,0000.78,0001.09,0000.64
2023-12-07 04:41:00,SystemResetWarning,0826.0,4.99,000.00,025.5,024.4,000.0,033.9,026.8,7.6,0000.0,0000.83,0001.17,0000.69
2023-12-07 04:42:00,SystemResetWarning,0825.9,4.99,000.00,025.5,024.4,000.0,033.9,026.8,7.5,0000.0,0000.89,0002.30,0000.75
2023-12-07 04:43:00,SystemResetWarning,0825.9,5.01,000.00,025.5,024.4,000.0,033.9,026.8,7.4,0000.0,0000.90,0003.06,0000.78
2023-12-07 04:44:00,SystemResetWarning,0825.9,5.01,000.00,025.5,024.4,000.0,033.9,026.8,7.4,0000.0,0000.92,0003.04,0000.81
2023-12-07 04:45:00,SystemResetWarning,0825.9,5.00,000.00,025.5,024.4,000.0,033.9,026.8,7.5,0000.0,0000.94,0003.05,0000.83
2023-12-07 04:46:00,SystemResetWarning,0825.9,4.99,000.00,025.5,024.4,000.0,033.9,026.8,7.7,0000.0,0000.94,0003.05,0000.83
2023-12-07 04:47:00,SystemResetWarning,0825.9,4.99,000.00,025.5,024.3,000.0,033.9,026.8,7.7,0000.0,0000.94,0003.77,0000.83
2023-12-07 04:48:00,SystemResetWarning,0825.8,5.00,000.00,025.5,024.3,000.0,033.9,026.7,7.9,0000.0,0000.94,0004.57,0000.83
2023-12-07 04:49:00,SystemResetWarning,0825.8,5.00,000.00,025.4,024.3,000.0,033.9,026.7,7.9,0000.0,0000.95,0004.57,0000.84
2023-12-07 04:50:00,SystemResetWarning,0825.9,5.00,000.00,025.4,024.4,000.0,033.9,026.7,7.6,0000.0,0000.96,0004.53,0000.88
2023-12-07 04:51:00,SystemResetWarning,0825.9,5.00,000.00,025.4,024.4,000.0,033.9,026.8,7.4,0000.0,0000.99,0004.54,0000.90
2023-12-07 04:52:00,SystemResetWarning,0825.9,5.00,000.00,025.4,024.3,000.0,033.8,026.8,7.4,0000.0,0000.98,0004.53,0000.87
2023-12-07 04:53:00,SystemResetWarning,0825.9,5.01,000.00,025.4,024.4,000.0,033.8,026.7,7.2,0000.0,0000.93,0003.44,0000.82
2023-12-07 04:54:00,SystemResetWarning,0825.9,5.00,000.00,025.4,024.3,000.0,033.8,026.7,7.2,0000.0,0000.94,0002.72,0000.82
2023-12-07 04:55:00,SystemResetWarning,0825.9,5.01,000.00,025.4,024.3,000.0,033.8,026.7,7.2,0000.0,0000.94,0002.71,0000.81
2023-12-07 04:56:00,SystemResetWarning,0825.8,4.99,000.00,025.4,024.3,000.0,033.8,026.8,7.3,0000.0,0000.99,0003.48,0000.84
2023-12-07 04:57:00,SystemResetWarning,0825.8,4.99,000.00,025.4,024.3,000.0,033.8,026.7,7.5,0000.0,0001.07,0004.39,0000.90
2023-12-07 04:58:00,SystemResetWarning,0825.8,5.00,000.00,025.4,024.3,000.0,033.8,026.7,7.7,0000.0,0001.19,0004.26,0000.99
2023-12-07 04:59:00,SystemResetWarning,0825.8,5.01,000.00,025.4,024.3,000.0,033.8,026.7,7.4,0000.0,0001.29,0003.21,0001.09
